Year,Month,Day,Hour,Minute,Value (Times are PST for temperature in C)
2008,05,25,00,00,17.40
2008,05,25,00,01,17.40
2008,05,25,00,02,17.40
2008,05,25,00,03,17.50
2008,05,25,00,04,17.60
2008,05,25,00,05,17.60
2008,05,25,00,06,17.70
2008,05,25,00,07,17.70
2008,05,25,00,08,17.70
2008,05,25,00,09,17.80
2008,05,25,00,10,17.80
2008,05,25,00,11,17.80
2008,05,25,00,12,17.90
2008,05,25,00,13,17.90
2008,05,25,00,14,17.80
2008,05,25,00,15,17.80
2008,05,25,00,16,17.80
2008,05,25,00,17,17.80
2008,05,25,00,18,17.80
2008,05,25,00,19,17.70
2008,05,25,00,20,17.70
2008,05,25,00,21,17.60
2008,05,25,00,22,17.60
2008,05,25,00,23,17.60
2008,05,25,00,24,17.60
2008,05,25,00,25,17.60
2008,05,25,00,26,17.60
2008,05,25,00,27,17.60
2008,05,25,00,28,17.60
2008,05,25,00,29,17.60
2008,05,25,00,30,17.60
2008,05,25,00,31,17.60
2008,05,25,00,32,17.60
2008,05,25,00,33,17.60
2008,05,25,00,34,17.70
2008,05,25,00,35,17.70
2008,05,25,00,36,17.70
2008,05,25,00,37,17.70
2008,05,25,00,38,17.70
2008,05,25,00,39,17.70
2008,05,25,00,40,17.70
2008,05,25,00,41,17.70
2008,05,25,00,42,17.70
2008,05,25,00,43,17.70
2008,05,25,00,44,17.70
2008,05,25,00,45,17.70
2008,05,25,00,46,17.70
2008,05,25,00,47,17.70
2008,05,25,00,48,17.70
2008,05,25,00,49,17.70
2008,05,25,00,50,17.60
2008,05,25,00,51,17.60
2008,05,25,00,52,17.60
2008,05,25,00,53,17.50
2008,05,25,00,54,17.50
2008,05,25,00,55,17.40
2008,05,25,00,56,17.40
2008,05,25,00,57,17.40
2008,05,25,00,58,17.30
2008,05,25,00,59,17.30
2008,05,25,01,00,17.30
2008,05,25,01,01,17.30
2008,05,25,01,02,17.20
2008,05,25,01,03,17.20
2008,05,25,01,04,17.20
2008,05,25,01,05,17.20
2008,05,25,01,06,17.20
2008,05,25,01,07,17.10
2008,05,25,01,08,17.20
2008,05,25,01,09,17.20
2008,05,25,01,10,17.20
2008,05,25,01,11,17.20
2008,05,25,01,12,17.20
2008,05,25,01,13,17.20
2008,05,25,01,14,17.20
2008,05,25,01,15,17.20
2008,05,25,01,16,17.20
2008,05,25,01,17,17.20
2008,05,25,01,18,17.20
2008,05,25,01,19,17.20
2008,05,25,01,20,17.10
2008,05,25,01,21,17.10
2008,05,25,01,22,17.10
2008,05,25,01,23,17.10
2008,05,25,01,24,17.00
2008,05,25,01,25,17.00
2008,05,25,01,26,17.00
2008,05,25,01,27,17.00
2008,05,25,01,28,17.00
2008,05,25,01,29,16.90
2008,05,25,01,30,16.90
2008,05,25,01,31,16.90
2008,05,25,01,32,16.80
2008,05,25,01,33,16.80
2008,05,25,01,34,16.70
2008,05,25,01,35,16.70
2008,05,25,01,36,16.70
2008,05,25,01,37,16.60
2008,05,25,01,38,16.60
2008,05,25,01,39,16.60
2008,05,25,01,40,16.50
2008,05,25,01,41,16.50
2008,05,25,01,42,16.50
2008,05,25,01,43,16.40
2008,05,25,01,44,16.40
2008,05,25,01,45,16.40
2008,05,25,01,46,16.40
2008,05,25,01,47,16.40
2008,05,25,01,48,16.40
2008,05,25,01,49,16.40
2008,05,25,01,50,16.40
2008,05,25,01,51,16.30
2008,05,25,01,52,16.30
2008,05,25,01,53,16.30
2008,05,25,01,54,16.40
2008,05,25,01,55,16.40
2008,05,25,01,56,16.40
2008,05,25,01,57,16.40
2008,05,25,01,58,16.40
2008,05,25,01,59,16.50
2008,05,25,02,00,16.40
2008,05,25,02,01,16.40
2008,05,25,02,02,16.40
2008,05,25,02,03,16.40
2008,05,25,02,04,16.40
2008,05,25,02,05,16.40
2008,05,25,02,06,16.40
2008,05,25,02,07,16.40
2008,05,25,02,08,16.50
2008,05,25,02,09,16.50
2008,05,25,02,10,16.50
2008,05,25,02,11,16.50
2008,05,25,02,12,16.50
2008,05,25,02,13,16.50
2008,05,25,02,14,16.40
2008,05,25,02,15,16.40
2008,05,25,02,16,16.40
2008,05,25,02,17,16.40
2008,05,25,02,18,16.40
2008,05,25,02,19,16.40
2008,05,25,02,20,16.40
2008,05,25,02,21,16.40
2008,05,25,02,22,16.40
2008,05,25,02,23,16.40
2008,05,25,02,24,16.40
2008,05,25,02,25,16.40
2008,05,25,02,26,16.40
2008,05,25,02,27,16.50
2008,05,25,02,28,16.50
2008,05,25,02,29,16.50
2008,05,25,02,30,16.50
2008,05,25,02,31,16.50
2008,05,25,02,32,16.40
2008,05,25,02,33,16.40
2008,05,25,02,34,16.40
2008,05,25,02,35,16.40
2008,05,25,02,36,16.40
2008,05,25,02,37,16.30
2008,05,25,02,38,16.30
2008,05,25,02,39,16.30
2008,05,25,02,40,16.30
2008,05,25,02,41,16.30
2008,05,25,02,42,16.20
2008,05,25,02,43,16.20
2008,05,25,02,44,16.20
2008,05,25,02,45,16.20
2008,05,25,02,46,16.20
2008,05,25,02,47,16.20
2008,05,25,02,48,16.20
2008,05,25,02,49,16.20
2008,05,25,02,50,16.20
2008,05,25,02,51,16.20
2008,05,25,02,52,16.20
2008,05,25,02,53,16.20
2008,05,25,02,54,16.20
2008,05,25,02,55,16.20
2008,05,25,02,56,16.20
2008,05,25,02,57,16.20
2008,05,25,02,58,16.20
2008,05,25,02,59,16.30
2008,05,25,03,00,16.30
2008,05,25,03,01,16.30
2008,05,25,03,02,16.30
2008,05,25,03,03,16.30
2008,05,25,03,04,16.30
2008,05,25,03,05,16.30
2008,05,25,03,06,16.20
2008,05,25,03,07,16.20
2008,05,25,03,08,16.20
2008,05,25,03,09,16.10
2008,05,25,03,10,16.10
2008,05,25,03,11,16.10
2008,05,25,03,12,16.00
2008,05,25,03,13,16.00
2008,05,25,03,14,16.00
2008,05,25,03,15,16.00
2008,05,25,03,16,16.00
2008,05,25,03,17,16.00
2008,05,25,03,18,16.00
2008,05,25,03,19,16.00
2008,05,25,03,20,16.00
2008,05,25,03,21,15.90
2008,05,25,03,22,15.90
2008,05,25,03,23,15.90
2008,05,25,03,24,16.00
2008,05,25,03,25,16.00
2008,05,25,03,26,16.00
2008,05,25,03,27,16.10
2008,05,25,03,28,16.10
2008,05,25,03,29,16.10
2008,05,25,03,30,16.10
2008,05,25,03,31,16.10
2008,05,25,03,32,16.10
2008,05,25,03,33,16.10
2008,05,25,03,34,16.10
2008,05,25,03,35,16.10
2008,05,25,03,36,16.10
2008,05,25,03,37,16.20
2008,05,25,03,38,16.20
2008,05,25,03,39,16.30
2008,05,25,03,40,16.30
2008,05,25,03,41,16.30
2008,05,25,03,42,16.30
2008,05,25,03,43,16.30
2008,05,25,03,44,16.30
2008,05,25,03,45,16.30
2008,05,25,03,46,16.30
2008,05,25,03,47,16.30
2008,05,25,03,48,16.30
2008,05,25,03,49,16.30
2008,05,25,03,50,16.30
2008,05,25,03,51,16.30
2008,05,25,03,52,16.40
2008,05,25,03,53,16.40
2008,05,25,03,54,16.40
2008,05,25,03,55,16.40
2008,05,25,03,56,16.40
2008,05,25,03,57,16.40
2008,05,25,03,58,16.40
2008,05,25,03,59,16.40
2008,05,25,04,00,16.30
2008,05,25,04,01,16.30
2008,05,25,04,02,16.30
2008,05,25,04,03,16.30
2008,05,25,04,04,16.30
2008,05,25,04,05,16.30
2008,05,25,04,06,16.30
2008,05,25,04,07,16.30
2008,05,25,04,08,16.30
2008,05,25,04,09,16.30
2008,05,25,04,10,16.40
2008,05,25,04,11,16.30
2008,05,25,04,12,16.30
2008,05,25,04,13,16.30
2008,05,25,04,14,16.30
2008,05,25,04,15,16.30
2008,05,25,04,16,16.20
2008,05,25,04,17,16.20
2008,05,25,04,18,16.20
2008,05,25,04,19,16.20
2008,05,25,04,20,16.20
2008,05,25,04,21,16.20
2008,05,25,04,22,16.20
2008,05,25,04,23,16.20
2008,05,25,04,24,16.20
2008,05,25,04,25,16.20
2008,05,25,04,26,16.20
2008,05,25,04,27,16.20
2008,05,25,04,28,16.20
2008,05,25,04,29,16.20
2008,05,25,04,30,16.10
2008,05,25,04,31,16.10
2008,05,25,04,32,16.10
2008,05,25,04,33,16.10
2008,05,25,04,34,16.00
2008,05,25,04,35,16.00
2008,05,25,04,36,15.90
2008,05,25,04,37,15.90
2008,05,25,04,38,15.90
2008,05,25,04,39,15.90
2008,05,25,04,40,15.90
2008,05,25,04,41,15.90
2008,05,25,04,42,15.90
2008,05,25,04,43,15.90
2008,05,25,04,44,15.80
2008,05,25,04,45,15.80
2008,05,25,04,46,15.80
2008,05,25,04,47,15.80
2008,05,25,04,48,15.80
2008,05,25,04,49,15.80
2008,05,25,04,50,15.80
2008,05,25,04,51,15.80
2008,05,25,04,52,15.80
2008,05,25,04,53,15.70
2008,05,25,04,54,15.70
2008,05,25,04,55,15.70
2008,05,25,04,56,15.70
2008,05,25,04,57,15.70
2008,05,25,04,58,15.70
2008,05,25,04,59,15.70
2008,05,25,05,00,15.70
2008,05,25,05,01,15.70
2008,05,25,05,02,15.70
2008,05,25,05,03,15.70
2008,05,25,05,04,15.70
2008,05,25,05,05,15.60
2008,05,25,05,06,15.60
2008,05,25,05,07,15.70
2008,05,25,05,08,15.70
2008,05,25,05,09,15.70
2008,05,25,05,10,15.70
2008,05,25,05,11,15.70
2008,05,25,05,12,15.70
2008,05,25,05,13,15.60
2008,05,25,05,14,15.60
2008,05,25,05,15,15.60
2008,05,25,05,16,15.60
2008,05,25,05,17,15.60
2008,05,25,05,18,15.50
2008,05,25,05,19,15.50
2008,05,25,05,20,15.50
2008,05,25,05,21,15.50
2008,05,25,05,22,15.40
2008,05,25,05,23,15.50
2008,05,25,05,24,15.50
2008,05,25,05,25,15.50
2008,05,25,05,26,15.50
2008,05,25,05,27,15.50
2008,05,25,05,28,15.50
2008,05,25,05,29,15.50
2008,05,25,05,30,15.40
2008,05,25,05,31,15.40
2008,05,25,05,32,15.30
2008,05,25,05,33,15.30
2008,05,25,05,34,15.30
2008,05,25,05,35,15.30
2008,05,25,05,36,15.30
2008,05,25,05,37,15.30
2008,05,25,05,38,15.30
2008,05,25,05,39,15.30
2008,05,25,05,40,15.30
2008,05,25,05,41,15.30
2008,05,25,05,42,15.20
2008,05,25,05,43,15.20
2008,05,25,05,44,15.20
2008,05,25,05,45,15.20
2008,05,25,05,46,15.20
2008,05,25,05,47,15.20
2008,05,25,05,48,15.10
2008,05,25,05,49,15.10
2008,05,25,05,50,15.00
2008,05,25,05,51,15.00
2008,05,25,05,52,15.00
2008,05,25,05,53,15.00
2008,05,25,05,54,15.00
2008,05,25,05,55,15.00
2008,05,25,05,56,15.00
2008,05,25,05,57,15.00
2008,05,25,05,58,15.00
2008,05,25,05,59,15.00
2008,05,25,06,00,15.00
2008,05,25,06,01,15.00
2008,05,25,06,02,15.00
2008,05,25,06,03,15.00
2008,05,25,06,04,15.10
2008,05,25,06,05,15.10
2008,05,25,06,06,15.10
2008,05,25,06,07,15.20
2008,05,25,06,08,15.20
2008,05,25,06,09,15.20
2008,05,25,06,10,15.20
2008,05,25,06,11,15.20
2008,05,25,06,12,15.20
2008,05,25,06,13,15.30
2008,05,25,06,14,15.30
2008,05,25,06,15,15.30
2008,05,25,06,16,15.30
2008,05,25,06,17,15.30
2008,05,25,06,18,15.30
2008,05,25,06,19,15.30
2008,05,25,06,20,15.30
2008,05,25,06,21,15.40
2008,05,25,06,22,15.40
2008,05,25,06,23,15.40
2008,05,25,06,24,15.40
2008,05,25,06,25,15.40
2008,05,25,06,26,15.40
2008,05,25,06,27,15.50
2008,05,25,06,28,15.50
2008,05,25,06,29,15.50
2008,05,25,06,30,15.60
2008,05,25,06,31,15.60
2008,05,25,06,32,15.70
2008,05,25,06,33,15.70
2008,05,25,06,34,15.70
2008,05,25,06,35,15.70
2008,05,25,06,36,15.70
2008,05,25,06,37,15.70
2008,05,25,06,38,15.80
2008,05,25,06,39,15.80
2008,05,25,06,40,15.80
2008,05,25,06,41,15.80
2008,05,25,06,42,15.80
2008,05,25,06,43,15.80
2008,05,25,06,44,15.80
2008,05,25,06,45,15.80
2008,05,25,06,46,15.90
2008,05,25,06,47,15.90
2008,05,25,06,48,16.00
2008,05,25,06,49,16.00
2008,05,25,06,50,16.10
2008,05,25,06,51,16.10
2008,05,25,06,52,16.20
2008,05,25,06,53,16.20
2008,05,25,06,54,16.20
2008,05,25,06,55,16.30
2008,05,25,06,56,16.30
2008,05,25,06,57,16.30
2008,05,25,06,58,16.30
2008,05,25,06,59,16.40
2008,05,25,07,00,16.40
2008,05,25,07,01,16.40
2008,05,25,07,02,16.40
2008,05,25,07,03,16.40
2008,05,25,07,04,16.40
2008,05,25,07,05,16.40
2008,05,25,07,06,16.40
2008,05,25,07,07,16.40
2008,05,25,07,08,16.40
2008,05,25,07,09,16.40
2008,05,25,07,10,16.40
2008,05,25,07,11,16.40
2008,05,25,07,12,16.40
2008,05,25,07,13,16.40
2008,05,25,07,14,16.40
2008,05,25,07,15,16.40
2008,05,25,07,16,16.40
2008,05,25,07,17,16.30
2008,05,25,07,18,16.30
2008,05,25,07,19,16.30
2008,05,25,07,20,16.30
2008,05,25,07,21,16.30
2008,05,25,07,22,16.30
2008,05,25,07,23,16.30
2008,05,25,07,24,16.30
2008,05,25,07,25,16.30
2008,05,25,07,26,16.30
2008,05,25,07,27,16.30
2008,05,25,07,28,16.30
2008,05,25,07,29,16.30
2008,05,25,07,30,16.30
2008,05,25,07,31,16.30
2008,05,25,07,32,16.30
2008,05,25,07,33,16.30
2008,05,25,07,34,16.30
2008,05,25,07,35,16.30
2008,05,25,07,36,16.30
2008,05,25,07,37,16.30
2008,05,25,07,38,16.30
2008,05,25,07,39,16.30
2008,05,25,07,40,16.30
2008,05,25,07,41,16.30
2008,05,25,07,42,16.30
2008,05,25,07,43,16.30
2008,05,25,07,44,16.30
2008,05,25,07,45,16.30
2008,05,25,07,46,16.30
2008,05,25,07,47,16.30
2008,05,25,07,48,16.30
2008,05,25,07,49,16.30
2008,05,25,07,50,16.30
2008,05,25,07,51,16.30
2008,05,25,07,52,16.30
2008,05,25,07,53,16.30
2008,05,25,07,54,16.30
2008,05,25,07,55,16.30
2008,05,25,07,56,16.40
2008,05,25,07,57,16.40
2008,05,25,07,58,16.40
2008,05,25,07,59,16.40
2008,05,25,08,00,16.40
2008,05,25,08,01,16.40
2008,05,25,08,02,16.50
2008,05,25,08,03,16.50
2008,05,25,08,04,16.50
2008,05,25,08,05,16.60
2008,05,25,08,06,16.60
2008,05,25,08,07,16.60
2008,05,25,08,08,16.60
2008,05,25,08,09,16.60
2008,05,25,08,10,16.70
2008,05,25,08,11,16.70
2008,05,25,08,12,16.70
2008,05,25,08,13,16.70
2008,05,25,08,14,16.70
2008,05,25,08,15,16.70
2008,05,25,08,16,16.80
2008,05,25,08,17,16.80
2008,05,25,08,18,16.80
2008,05,25,08,19,16.80
2008,05,25,08,20,16.80
2008,05,25,08,21,16.80
2008,05,25,08,22,16.80
2008,05,25,08,23,16.80
2008,05,25,08,24,16.70
2008,05,25,08,25,16.70
2008,05,25,08,26,16.70
2008,05,25,08,27,16.70
2008,05,25,08,28,16.70
2008,05,25,08,29,16.70
2008,05,25,08,30,16.80
2008,05,25,08,31,16.80
2008,05,25,08,32,16.80
2008,05,25,08,33,16.80
2008,05,25,08,34,16.90
2008,05,25,08,35,16.90
2008,05,25,08,36,17.00
2008,05,25,08,37,17.00
2008,05,25,08,38,17.10
2008,05,25,08,39,17.10
2008,05,25,08,40,17.20
2008,05,25,08,41,17.20
2008,05,25,08,42,17.20
2008,05,25,08,43,17.30
2008,05,25,08,44,17.30
2008,05,25,08,45,17.30
2008,05,25,08,46,17.30
2008,05,25,08,47,17.40
2008,05,25,08,48,17.40
2008,05,25,08,49,17.30
2008,05,25,08,50,17.30
2008,05,25,08,51,17.30
2008,05,25,08,52,17.30
2008,05,25,08,53,17.30
2008,05,25,08,54,17.30
2008,05,25,08,55,17.30
2008,05,25,08,56,17.30
2008,05,25,08,57,17.30
2008,05,25,08,58,17.30
2008,05,25,08,59,17.40
2008,05,25,09,00,17.40
2008,05,25,09,01,17.40
2008,05,25,09,02,17.40
2008,05,25,09,03,17.40
2008,05,25,09,04,17.40
2008,05,25,09,05,17.40
2008,05,25,09,06,17.40
2008,05,25,09,07,17.50
2008,05,25,09,08,17.50
2008,05,25,09,09,17.60
2008,05,25,09,10,17.60
2008,05,25,09,11,17.70
2008,05,25,09,12,17.70
2008,05,25,09,13,17.70
2008,05,25,09,14,17.70
2008,05,25,09,15,17.70
2008,05,25,09,16,17.70
2008,05,25,09,17,17.80
2008,05,25,09,18,17.80
2008,05,25,09,19,17.90
2008,05,25,09,20,17.90
2008,05,25,09,21,18.00
2008,05,25,09,22,18.10
2008,05,25,09,23,18.10
2008,05,25,09,24,18.10
2008,05,25,09,25,18.10
2008,05,25,09,26,18.10
2008,05,25,09,27,18.10
2008,05,25,09,28,18.10
2008,05,25,09,29,18.10
2008,05,25,09,30,18.00
2008,05,25,09,31,18.00
2008,05,25,09,32,17.90
2008,05,25,09,33,17.90
2008,05,25,09,34,17.80
2008,05,25,09,35,17.80
2008,05,25,09,36,17.80
2008,05,25,09,37,17.90
2008,05,25,09,38,17.90
2008,05,25,09,39,17.90
2008,05,25,09,40,17.90
2008,05,25,09,41,17.90
2008,05,25,09,42,17.90
2008,05,25,09,43,17.80
2008,05,25,09,44,17.80
2008,05,25,09,45,17.80
2008,05,25,09,46,17.70
2008,05,25,09,47,17.70
2008,05,25,09,48,17.70
2008,05,25,09,49,17.70
2008,05,25,09,50,17.70
2008,05,25,09,51,17.70
2008,05,25,09,52,17.70
2008,05,25,09,53,17.60
2008,05,25,09,54,17.70
2008,05,25,09,55,17.70
2008,05,25,09,56,17.70
2008,05,25,09,57,17.80
2008,05,25,09,58,17.80
2008,05,25,09,59,17.90
2008,05,25,10,00,18.00
2008,05,25,10,01,18.10
2008,05,25,10,02,18.20
2008,05,25,10,03,18.30
2008,05,25,10,04,18.40
2008,05,25,10,05,18.40
2008,05,25,10,06,18.50
2008,05,25,10,07,18.40
2008,05,25,10,08,18.50
2008,05,25,10,09,18.60
2008,05,25,10,10,18.60
2008,05,25,10,11,18.70
2008,05,25,10,12,18.70
2008,05,25,10,13,18.90
2008,05,25,10,14,19.00
2008,05,25,10,15,19.00
2008,05,25,10,16,19.10
2008,05,25,10,17,19.20
2008,05,25,10,18,19.20
2008,05,25,10,19,19.30
2008,05,25,10,20,19.30
2008,05,25,10,21,19.40
2008,05,25,10,22,19.30
2008,05,25,10,23,19.30
2008,05,25,10,24,19.30
2008,05,25,10,25,19.30
2008,05,25,10,26,19.30
2008,05,25,10,27,19.20
2008,05,25,10,28,19.10
2008,05,25,10,29,19.10
2008,05,25,10,30,19.00
2008,05,25,10,31,18.90
2008,05,25,10,32,18.80
2008,05,25,10,33,18.80
2008,05,25,10,34,18.70
2008,05,25,10,35,18.60
2008,05,25,10,36,18.50
2008,05,25,10,37,18.40
2008,05,25,10,38,18.30
2008,05,25,10,39,18.20
2008,05,25,10,40,18.20
2008,05,25,10,41,18.20
2008,05,25,10,42,18.20
2008,05,25,10,43,18.20
2008,05,25,10,44,18.20
2008,05,25,10,45,18.20
2008,05,25,10,46,18.20
2008,05,25,10,47,18.20
2008,05,25,10,48,18.10
2008,05,25,10,49,18.10
2008,05,25,10,50,18.10
2008,05,25,10,51,18.20
2008,05,25,10,52,18.20
2008,05,25,10,53,18.20
2008,05,25,10,54,18.30
2008,05,25,10,55,18.40
2008,05,25,10,56,18.50
2008,05,25,10,57,18.50
2008,05,25,10,58,18.60
2008,05,25,10,59,18.70
2008,05,25,11,00,18.80
2008,05,25,11,01,18.90
2008,05,25,11,02,18.90
2008,05,25,11,03,19.00
2008,05,25,11,04,19.00
2008,05,25,11,05,19.10
2008,05,25,11,06,19.10
2008,05,25,11,07,19.20
2008,05,25,11,08,19.20
2008,05,25,11,09,19.20
2008,05,25,11,10,19.10
2008,05,25,11,11,19.10
2008,05,25,11,12,19.10
2008,05,25,11,13,19.10
2008,05,25,11,14,19.10
2008,05,25,11,15,19.10
2008,05,25,11,16,19.10
2008,05,25,11,17,19.10
2008,05,25,11,18,19.20
2008,05,25,11,19,19.30
2008,05,25,11,20,19.30
2008,05,25,11,21,19.50
2008,05,25,11,22,19.60
2008,05,25,11,23,19.80
2008,05,25,11,24,19.90
2008,05,25,11,25,20.00
2008,05,25,11,26,20.10
2008,05,25,11,27,20.20
2008,05,25,11,28,20.30
2008,05,25,11,29,20.30
2008,05,25,11,30,20.40
2008,05,25,11,31,20.40
2008,05,25,11,32,20.50
2008,05,25,11,33,20.60
2008,05,25,11,34,20.60
2008,05,25,11,35,20.60
2008,05,25,11,36,20.60
2008,05,25,11,37,20.60
2008,05,25,11,38,20.70
2008,05,25,11,39,20.80
2008,05,25,11,40,20.90
2008,05,25,11,41,20.90
2008,05,25,11,42,20.80
2008,05,25,11,43,20.80
2008,05,25,11,44,20.80
2008,05,25,11,45,20.70
2008,05,25,11,46,20.60
2008,05,25,11,47,20.60
2008,05,25,11,48,20.60
2008,05,25,11,49,20.50
2008,05,25,11,50,20.40
2008,05,25,11,51,20.40
2008,05,25,11,52,20.40
2008,05,25,11,53,20.50
2008,05,25,11,54,20.60
2008,05,25,11,55,20.60
2008,05,25,11,56,20.60
2008,05,25,11,57,20.60
2008,05,25,11,58,20.60
2008,05,25,11,59,20.60
2008,05,25,12,00,20.60
2008,05,25,12,01,20.50
2008,05,25,12,02,20.50
2008,05,25,12,03,20.50
2008,05,25,12,04,20.40
2008,05,25,12,05,20.30
2008,05,25,12,06,20.20
2008,05,25,12,07,20.30
2008,05,25,12,08,20.30
2008,05,25,12,09,20.30
2008,05,25,12,10,20.30
2008,05,25,12,11,20.20
2008,05,25,12,12,20.20
2008,05,25,12,13,20.30
2008,05,25,12,14,20.30
2008,05,25,12,15,20.40
2008,05,25,12,16,20.50
2008,05,25,12,17,20.60
2008,05,25,12,18,20.70
2008,05,25,12,19,20.80
2008,05,25,12,20,20.80
2008,05,25,12,21,20.80
2008,05,25,12,22,20.70
2008,05,25,12,23,20.70
2008,05,25,12,24,20.80
2008,05,25,12,25,20.80
2008,05,25,12,26,20.90
2008,05,25,12,27,20.90
2008,05,25,12,28,21.00
2008,05,25,12,29,21.00
2008,05,25,12,30,21.00
2008,05,25,12,31,20.90
2008,05,25,12,32,21.00
2008,05,25,12,33,21.00
2008,05,25,12,34,21.00
2008,05,25,12,35,21.00
2008,05,25,12,36,20.90
2008,05,25,12,37,20.90
2008,05,25,12,38,20.90
2008,05,25,12,39,20.90
2008,05,25,12,40,20.90
2008,05,25,12,41,20.90
2008,05,25,12,42,21.00
2008,05,25,12,43,21.10
2008,05,25,12,44,21.20
2008,05,25,12,45,21.30
2008,05,25,12,46,21.40
2008,05,25,12,47,21.50
2008,05,25,12,48,21.70
2008,05,25,12,49,21.80
2008,05,25,12,50,21.90
2008,05,25,12,51,21.90
2008,05,25,12,52,21.80
2008,05,25,12,53,21.70
2008,05,25,12,54,21.60
2008,05,25,12,55,21.60
2008,05,25,12,56,21.60
2008,05,25,12,57,21.50
2008,05,25,12,58,21.50
2008,05,25,12,59,21.50
2008,05,25,13,00,21.40
2008,05,25,13,01,21.40
2008,05,25,13,02,21.40
2008,05,25,13,03,21.40
2008,05,25,13,04,21.40
2008,05,25,13,05,21.40
2008,05,25,13,06,21.30
2008,05,25,13,07,21.30
2008,05,25,13,08,21.30
2008,05,25,13,09,21.30
2008,05,25,13,10,21.30
2008,05,25,13,11,21.30
2008,05,25,13,12,21.30
2008,05,25,13,13,21.30
2008,05,25,13,14,21.30
2008,05,25,13,15,21.30
2008,05,25,13,16,21.30
2008,05,25,13,17,21.40
2008,05,25,13,18,21.40
2008,05,25,13,19,21.50
2008,05,25,13,20,21.50
2008,05,25,13,21,21.50
2008,05,25,13,22,21.50
2008,05,25,13,23,21.50
2008,05,25,13,24,21.60
2008,05,25,13,25,21.60
2008,05,25,13,26,21.60
2008,05,25,13,27,21.70
2008,05,25,13,28,21.80
2008,05,25,13,29,21.80
2008,05,25,13,30,21.80
2008,05,25,13,31,21.80
2008,05,25,13,32,21.90
2008,05,25,13,33,21.90
2008,05,25,13,34,22.00
2008,05,25,13,35,22.00
2008,05,25,13,36,22.00
2008,05,25,13,37,22.00
2008,05,25,13,38,22.00
2008,05,25,13,39,22.00
2008,05,25,13,40,22.00
2008,05,25,13,41,21.90
2008,05,25,13,42,21.90
2008,05,25,13,43,22.00
2008,05,25,13,44,22.00
2008,05,25,13,45,22.00
2008,05,25,13,46,22.00
2008,05,25,13,47,21.90
2008,05,25,13,48,21.90
2008,05,25,13,49,21.90
2008,05,25,13,50,21.90
2008,05,25,13,51,21.80
2008,05,25,13,52,21.80
2008,05,25,13,53,21.80
2008,05,25,13,54,21.70
2008,05,25,13,55,21.60
2008,05,25,13,56,21.50
2008,05,25,13,57,21.50
2008,05,25,13,58,21.50
2008,05,25,13,59,21.50
2008,05,25,14,00,21.70
2008,05,25,14,01,21.70
2008,05,25,14,02,21.80
2008,05,25,14,03,21.80
2008,05,25,14,04,21.80
2008,05,25,14,05,21.80
2008,05,25,14,06,21.70
2008,05,25,14,07,21.70
2008,05,25,14,08,21.70
2008,05,25,14,09,21.60
2008,05,25,14,10,21.60
2008,05,25,14,11,21.60
2008,05,25,14,12,21.60
2008,05,25,14,13,21.60
2008,05,25,14,14,21.70
2008,05,25,14,15,21.80
2008,05,25,14,16,21.80
2008,05,25,14,17,21.80
2008,05,25,14,18,21.90
2008,05,25,14,19,22.10
2008,05,25,14,20,22.20
2008,05,25,14,21,22.20
2008,05,25,14,22,22.20
2008,05,25,14,23,22.20
2008,05,25,14,24,22.30
2008,05,25,14,25,22.20
2008,05,25,14,26,22.30
2008,05,25,14,27,22.30
2008,05,25,14,28,22.50
2008,05,25,14,29,22.60
2008,05,25,14,30,22.60
2008,05,25,14,31,22.60
2008,05,25,14,32,22.60
2008,05,25,14,33,22.40
2008,05,25,14,34,22.30
2008,05,25,14,35,22.40
2008,05,25,14,36,22.40
2008,05,25,14,37,22.30
2008,05,25,14,38,22.30
2008,05,25,14,39,22.20
2008,05,25,14,40,22.20
2008,05,25,14,41,22.20
2008,05,25,14,42,22.20
2008,05,25,14,43,22.10
2008,05,25,14,44,22.10
2008,05,25,14,45,22.20
2008,05,25,14,46,22.20
2008,05,25,14,47,22.30
2008,05,25,14,48,22.30
2008,05,25,14,49,22.30
2008,05,25,14,50,22.40
2008,05,25,14,51,22.40
2008,05,25,14,52,22.50
2008,05,25,14,53,22.50
2008,05,25,14,54,22.60
2008,05,25,14,55,22.60
2008,05,25,14,56,22.60
2008,05,25,14,57,22.50
2008,05,25,14,58,22.40
2008,05,25,14,59,22.20
2008,05,25,15,00,22.00
2008,05,25,15,01,21.90
2008,05,25,15,02,21.90
2008,05,25,15,03,21.90
2008,05,25,15,04,21.90
2008,05,25,15,05,21.90
2008,05,25,15,06,22.00
2008,05,25,15,07,22.00
2008,05,25,15,08,22.00
2008,05,25,15,09,21.90
2008,05,25,15,10,21.80
2008,05,25,15,11,21.80
2008,05,25,15,12,21.80
2008,05,25,15,13,21.80
2008,05,25,15,14,21.80
2008,05,25,15,15,21.70
2008,05,25,15,16,21.60
2008,05,25,15,17,21.50
2008,05,25,15,18,21.30
2008,05,25,15,19,21.30
2008,05,25,15,20,21.20
2008,05,25,15,21,21.20
2008,05,25,15,22,21.10
2008,05,25,15,23,21.10
2008,05,25,15,24,21.00
2008,05,25,15,25,21.00
2008,05,25,15,26,21.00
2008,05,25,15,27,20.90
2008,05,25,15,28,21.00
2008,05,25,15,29,21.00
2008,05,25,15,30,21.10
2008,05,25,15,31,21.10
2008,05,25,15,32,21.20
2008,05,25,15,33,21.20
2008,05,25,15,34,21.20
2008,05,25,15,35,21.20
2008,05,25,15,36,21.20
2008,05,25,15,37,21.30
2008,05,25,15,38,21.30
2008,05,25,15,39,21.40
2008,05,25,15,40,21.50
2008,05,25,15,41,21.60
2008,05,25,15,42,21.70
2008,05,25,15,43,21.70
2008,05,25,15,44,21.80
2008,05,25,15,45,21.80
2008,05,25,15,46,21.90
2008,05,25,15,47,22.00
2008,05,25,15,48,22.10
2008,05,25,15,49,22.20
2008,05,25,15,50,22.40
2008,05,25,15,51,22.50
2008,05,25,15,52,22.60
2008,05,25,15,53,22.70
2008,05,25,15,54,22.80
2008,05,25,15,55,22.90
2008,05,25,15,56,23.10
2008,05,25,15,57,23.10
2008,05,25,15,58,23.00
2008,05,25,15,59,23.00
2008,05,25,16,00,22.90
2008,05,25,16,01,22.90
2008,05,25,16,02,23.00
2008,05,25,16,03,23.00
2008,05,25,16,04,23.10
2008,05,25,16,05,23.10
2008,05,25,16,06,23.10
2008,05,25,16,07,23.10
2008,05,25,16,08,23.20
2008,05,25,16,09,23.30
2008,05,25,16,10,23.30
2008,05,25,16,11,23.40
2008,05,25,16,12,23.50
2008,05,25,16,13,23.60
2008,05,25,16,14,23.50
2008,05,25,16,15,23.30
2008,05,25,16,16,23.20
2008,05,25,16,17,23.10
2008,05,25,16,18,23.10
2008,05,25,16,19,23.20
2008,05,25,16,20,23.20
2008,05,25,16,21,23.20
2008,05,25,16,22,23.30
2008,05,25,16,23,23.30
2008,05,25,16,24,23.40
2008,05,25,16,25,23.40
2008,05,25,16,26,23.40
2008,05,25,16,27,23.30
2008,05,25,16,28,23.20
2008,05,25,16,29,23.00
2008,05,25,16,30,22.90
2008,05,25,16,31,22.90
2008,05,25,16,32,22.90
2008,05,25,16,33,22.80
2008,05,25,16,34,22.80
2008,05,25,16,35,22.90
2008,05,25,16,36,23.00
2008,05,25,16,37,23.00
2008,05,25,16,38,23.10
2008,05,25,16,39,23.20
2008,05,25,16,40,23.30
2008,05,25,16,41,23.40
2008,05,25,16,42,23.50
2008,05,25,16,43,23.50
2008,05,25,16,44,23.60
2008,05,25,16,45,23.70
2008,05,25,16,46,23.80
2008,05,25,16,47,23.80
2008,05,25,16,48,23.80
2008,05,25,16,49,23.80
2008,05,25,16,50,23.70
2008,05,25,16,51,23.70
2008,05,25,16,52,23.70
2008,05,25,16,53,23.70
2008,05,25,16,54,23.60
2008,05,25,16,55,23.60
2008,05,25,16,56,23.50
2008,05,25,16,57,23.40
2008,05,25,16,58,23.30
2008,05,25,16,59,23.30
2008,05,25,17,00,23.30
2008,05,25,17,01,23.20
2008,05,25,17,02,23.10
2008,05,25,17,03,23.00
2008,05,25,17,04,23.00
2008,05,25,17,05,23.00
2008,05,25,17,06,22.90
2008,05,25,17,07,22.80
2008,05,25,17,08,22.80
2008,05,25,17,09,22.70
2008,05,25,17,10,22.70
2008,05,25,17,11,22.60
2008,05,25,17,12,22.60
2008,05,25,17,13,22.60
2008,05,25,17,14,22.60
2008,05,25,17,15,22.60
2008,05,25,17,16,22.50
2008,05,25,17,17,22.50
2008,05,25,17,18,22.40
2008,05,25,17,19,22.40